Regional Weather Roundup
Issued by NWS Sterling, VA

Home | Current Version | Previous Version | Text Only | Print | Product List | Glossary Off
Versions: 1 2 3 4 5 6 7 8 9 10 11 12 13 14 15 16 17 18 19 20 21 22 23 24 25 26 27 28 29 30 31 32 33 34 35 36 37 38 39 40 41 42 43 44 45 46 47 48 49 50

838
ASUS41 KLWX 031711
RWRLWX

REGIONAL WEATHER ROUNDUP
NATIONAL WEATHER SERVICE BALTIMORE MD/WASHINGTON DC
100 PM EDT TUE MAY 03 2016

Note: "FAIR" indicates few or no clouds below 12,000 feet
with no significant weather and/or obstructions to visibility.
 TC=TEMPERATURE CELSIUS

 * =Non NWS site. Station does not report precipitation (e.g. rain,
    snow, etc.), thunder, or fog.

DCZ001-MDZ009-015-VAZ040>042-051-053>054-031800-
WASHINGTON METRO

CITY           SKY/WX    TMP DP  RH WIND       PRES   REMARKS
WASHINGTON NAT CLOUDY    69  60  73 NW9       29.79S
DULLES         PTSUNNY   68  56  65 NW5       29.80F
ANDREWS AFB    CLOUDY    69  59  70 N9        29.77F
FT BELVOIR     PTSUNNY   70  59  68 NW7       29.78F
QUANTICO       PTSUNNY   68  62  81 E6        29.79F
COLLEGE PARK*  CLOUDY    66  57  72 NW8       29.79S
LEESBURG*      CLOUDY    68  61  77 N6        29.81F
MANASSAS*      PTSUNNY   70  61  73 N10       29.79F
GAITHERSBURG*  CLOUDY    63  55  77 CALM      29.84F

$$

MDZ006>007-011-014-031800-
BALTIMORE METRO

CITY           SKY/WX    TMP DP  RH WIND       PRES   REMARKS
BWI AIRPORT    CLOUDY    62  58  86 NE6       29.79S FOG
MD SCIENCE CTR   N/A     62  57  83 MISG      29.80F
MARTIN STATE   CLOUDY    63  61  94 N6        29.81F
ANNAPOLIS      CLOUDY    60  58  92 N8        29.80S
FORT MEADE*    CLOUDY    63  59  88 E5        29.82R

$$

MDZ012-015-019>023-031800-
MARYLAND EASTERN SHORE

CITY           SKY/WX    TMP DP  RH WIND       PRES   REMARKS
OCEAN CITY     CLOUDY    68  64  87 W7        29.77F
SALISBURY      CLOUDY    68  63  84 W7        29.77S
CAMBRIDGE*     PTSUNNY   66  61  82 N7        29.77F
EASTON*        CLOUDY   N/A N/A N/A NW7       29.82F

$$

MDZ017>025-031800-
SOUTHERN MARYLAND

CITY           SKY/WX    TMP DP  RH WIND       PRES   REMARKS
PATUXENT RIVER CLOUDY    69  62  78 VRB5      29.77F
ST INIGOES     PTSUNNY   72  62  71 NW3       29.76F
LEONARDTOWN*   PTSUNNY   70  59  68 N3        29.79F

$$

MDZ003>005-031800-
NORTH CENTRAL MARYLAND

CITY           SKY/WX    TMP DP  RH WIND       PRES   REMARKS
FREDERICK*     CLOUDY    63  59  88 NE7       29.84S
HAGERSTOWN APT CLOUDY    65  54  67 N9        29.81F
WESTMINSTER*   CLOUDY    57  37  47 N5        29.82R

$$

MDZ501>502-031800-
WESTERN MARYLAND

CITY           SKY/WX    TMP DP  RH WIND       PRES   REMARKS
OAKLAND*       CLOUDY    54  43  66 NW8       29.85F
CUMBERLAND*    MOSUNNY   70  50  49 W5        29.82F

$$

VAZ025>031-031800-
SHENANDOAH VALLEY

CITY           SKY/WX    TMP DP  RH WIND       PRES   REMARKS
WINCHESTER*    CLOUDY    68  54  60 NE3       29.80F
FRONT ROYAL*   PTSUNNY   68  59  73 CALM      29.79F
LURAY*         FAIR      68  61  77 NE3       29.79F
NEW MARKET*    PTSUNNY   67  58  72 CALM      29.78F
STAUNTON*      PTSUNNY   71  59  64 S6        29.80F
WAYNESBORO*    PTSUNNY   70  56  61 CALM      29.80F

$$

WVZ021-048>050-054>055-031800-
EASTERN WEST VIRGINIA PANHANDLE

CITY           SKY/WX    TMP DP  RH WIND       PRES   REMARKS
MARTINSBURG    CLOUDY    67  54  63 N8        29.79F
PETERSBURG*    PTSUNNY   71  54  55 CALM      29.79F

$$

VAZ036>039-050-031800-
CENTRAL FOOTHILLS

CITY           SKY/WX    TMP DP  RH WIND       PRES   REMARKS
CHARLOTTESVILL PTSUNNY   75  58  55 VRB3      29.77F
CULPEPER*      FAIR      73  61  67 E5        29.79F
ORANGE*        FAIR      72  59  64 CALM      29.79F
GORDONSVILLE*  PTSUNNY   72  59  63 E3        29.77F
WARRENTON*     PTSUNNY   73  56  54 CALM      29.78F

$$

VAZ055>057-031800-
NORTH AND CENTRAL PIEDMONT

CITY           SKY/WX    TMP DP  RH WIND       PRES   REMARKS
FREDERICKSBRG* CLOUDY    70  62  74 NE5       29.78S
STAFFORD*      CLOUDY    70  60  69 NE3       29.82F

$$

NCZ024-NYZ072-PAZ021-071-VAZ022-071-031800-
OTHER REGIONAL OBSERVATIONS

CITY           SKY/WX    TMP DP  RH WIND       PRES   REMARKS
NEW YORK CITY  CLOUDY    52  49  89 E10G17    29.86F
PHILADELPHIA   CLOUDY    57  52  83 NE12      29.81F
PITTSBURGH     MOSUNNY   59  43  55 VRB3      29.85F
ROANOKE        PTSUNNY   72  58  61 VRB3      29.82F
RICHMOND       PTSUNNY   71  62  73 S3        29.78F
RALEIGH        PTSUNNY   73  66  78 SW9       29.82F

$$

ANZ530>537-031800-
MARINE OBSERVATIONS

STATION/POSITION TIME  TEMP    WIND        PRES
                       AIR SEA DIR/SP/G
                 (UTC) (F)     (DEG/KT/KT) (MB)
THOMAS PT LIGHT  1700   58 58   10/  7/  8 1010.1F
BALT KEY BRIDGE  1600   59      70/  6/  7 1008.9F
COVE POINT       1600   60      10/  2/  5 1009.3F
LEWISETTA        1600   67 62  350/  3/  5 1008.3F
SOLOMONS ISLAND  1600   68 61  290/  4/  6   N/A
PINEY POINT      1600          320/  6/  6   N/A

$$





USA.gov is the U.S. government's official web portal to all federal, state and local government web resources and services.